Weather History for Manhattan, KS

Change the Weather History Date:

Saturday, April 6, 2013

  Actual Average Record
Temperature  
Mean Temperature 61 °F 51 °F  
Max Temperature 77 °F 64 °F 84 °F (2006)
Min Temperature 45 °F 38 °F 26 °F (2007)
Degree Days  
Heating Degree Days 4 14  
Month to date heating degree days 114 91  
Since 1 July heating degree days 4651 4927  
Cooling Degree Days 0 0  
Month to date cooling degree days 0 0  
Year to date cooling degree days 0 2  
Growing Degree Days 13 (Base 50)    
Moisture  
Dew Point 42 °F    
Average Humidity 53    
Maximum Humidity 76    
Minimum Humidity 29    
Precipitation  
Precipitation 0.00 in 0.06 in 0.70 in (2005)
Month to date precipitation 0.00 0.31  
Year to date precipitation 2.78 4.23  
Sea Level Pressure  
Sea Level Pressure 29.72 in    
Wind  
Wind Speed 11 mph (WSW)    
Max Wind Speed 26 mph    
Max Gust Speed 36 mph    
Visibility 10 miles    
Events      
T = Trace of Precipitation, MM = Missing Value Source: NWS Daily Summary

Daily Weather History Graph

Daily Weather History Graph

Search for Another Location

Airport:

Trip Planner

Search our weather history database for the weather conditions in past years. The results will help you decide how hot, cold, wet, or windy it might be!

Date:

Astronomy

Apr. 06, 2013 Rise Set
Actual Time 7:03 AM CDT 7:55 PM CDT
Civil Twilight 6:35 AM CDT 8:22 PM CDT
Nautical Twilight 6:03 AM CDT 8:55 PM CDT
Astronomical Twilight 5:30 AM CDT 9:28 PM CDT
Moon 4:45 AM CDT (4/6) 4:26 PM CDT (4/6)
Length of Visible Light 13h 46m
Length of Day
12h 52m
Waning Crescent, 15% of the Moon is Illuminated
Apr 6
Waning Crescent
Apr 10
New
Apr 18
First Quarter
Apr 25
Full
May 2
Last Quarter

Hourly Weather History & Observations

Time (CDT) Temp. Dew Point Humidity Pressure Visibility Wind Dir Wind Speed Gust Speed Precip Events Conditions
12:52 AM 59.0 °F 42.1 °F 53% 29.74 in 10.0 mi SSW 18.4 mph 26.5 mph N/A   Clear
1:52 AM 59.0 °F 43.0 °F 55% 29.71 in 10.0 mi SSW 25.3 mph 32.2 mph N/A   Clear
2:52 AM 57.9 °F 43.0 °F 58% 29.68 in 10.0 mi South 21.9 mph 33.4 mph N/A   Clear
3:52 AM 57.9 °F 43.0 °F 58% 29.67 in 10.0 mi SSW 18.4 mph 27.6 mph N/A   Clear
4:52 AM 57.9 °F 44.1 °F 60% 29.69 in 10.0 mi SSW 18.4 mph 29.9 mph N/A   Clear
5:52 AM 57.0 °F 44.1 °F 62% 29.66 in 10.0 mi SSW 13.8 mph 20.7 mph N/A   Clear
6:52 AM 57.2 °F 44.6 °F 63% 29.67 in 10.0 mi SSW 16.1 mph 24.2 mph N/A   Clear
7:52 AM 57.0 °F 45.0 °F 64% 29.66 in 10.0 mi SSW 16.1 mph 27.6 mph N/A   Clear
8:52 AM 59.0 °F 46.0 °F 62% 29.67 in 10.0 mi SW 17.3 mph 25.3 mph N/A   Clear
9:52 AM 63.0 °F 46.9 °F 56% 29.67 in 10.0 mi SW 19.6 mph 26.5 mph N/A   Clear
10:52 AM 66.0 °F 46.0 °F 48% 29.68 in 10.0 mi West 16.1 mph 23.0 mph N/A   Clear
11:52 AM 69.1 °F 43.0 °F 39% 29.69 in 10.0 mi NW 12.7 mph 23.0 mph N/A   Clear
12:52 PM 71.1 °F 39.0 °F 31% 29.70 in 10.0 mi WNW 15.0 mph 23.0 mph N/A   Clear
1:52 PM 73.0 °F 41.0 °F 31% 29.70 in 10.0 mi Variable 6.9 mph 31.1 mph N/A   Clear
2:52 PM 75.0 °F 42.1 °F 31% 29.69 in 10.0 mi WNW 11.5 mph 19.6 mph N/A   Clear
3:52 PM 75.0 °F 41.0 °F 29% 29.69 in 10.0 mi NW 11.5 mph 21.9 mph N/A   Partly Cloudy
4:52 PM 75.0 °F 41.0 °F 29% 29.70 in 10.0 mi NNW 8.1 mph 21.9 mph N/A   Clear
5:52 PM 73.9 °F 39.9 °F 29% 29.73 in 10.0 mi NNW 9.2 mph 16.1 mph N/A   Clear
6:52 PM 71.1 °F 39.9 °F 32% 29.76 in 10.0 mi NNW 9.2 mph 16.1 mph N/A   Clear
7:52 PM 66.9 °F 39.9 °F 37% 29.78 in 10.0 mi Calm Calm - N/A   Clear
8:52 PM 62.1 °F 41.0 °F 46% 29.79 in 10.0 mi Calm Calm - N/A   Clear
9:52 PM 60.1 °F 41.0 °F 49% 29.81 in 10.0 mi WSW 3.5 mph - N/A   Clear
10:52 PM 51.1 °F 41.0 °F 68% 29.81 in 10.0 mi Calm Calm - N/A   Clear
11:52 PM 46.0 °F 39.9 °F 79% 29.82 in 10.0 mi Calm Calm - N/A   Clear